DW2789 Weather Reports


Display with metric or nautical units.
time (UTC)temp
F
wind
direction
speed
MPH
gust
MPH
rain 1hr
in
rain 24hr
in
rain mn
in
humidity
%
barometer
mb
20260507214955 73 91 11.0 16.0 0.00 0.00 0.00 31 1014.3
20260507213933 74 91 3.0 13.0 0.00 0.00 0.00 38 1014.4
20260507212935 73 91 6.0 15.0 0.00 0.00 0.00 39 1014.5
20260507211943 73 90 7.0 13.0 0.00 0.00 0.00 41 1014.6
20260507210948 72 87 6.0 11.0 0.00 0.00 0.00 39 1014.7
20260507205934 72 83 4.0 14.0 0.00 0.00 0.00 39 1014.8
20260507204937 71 82 7.0 17.0 0.00 0.00 0.00 43 1014.8
20260507203943 71 74 7.0 15.0 0.00 0.00 0.00 42 1015.0
20260507202949 70 79 8.0 13.0 0.00 0.00 0.00 42 1015.0
20260507201953 70 76 11.0 16.0 0.00 0.00 0.00 41 1015.1
20260507200936 70 69 12.0 16.0 0.00 0.00 0.00 40 1015.2
20260507195942 70 74 6.0 15.0 0.00 0.00 0.00 43 1015.4
20260507195004 69 63 8.0 13.0 0.00 0.00 0.00 45 1015.3
20260507193944 69 47 6.0 16.0 0.00 0.00 0.00 46 1015.3
20260507192935 69 54 1.0 13.0 0.00 0.00 0.00 51 1015.2
20260507192011 68 60 2.0 10.0 0.00 0.00 0.00 48 1015.3
20260507190947 68 60 7.0 13.0 0.00 0.00 0.00 50 1015.4
20260507185947 67 60 8.0 15.0 0.00 0.00 0.00 50 1015.5
20260507184947 67 57 3.0 14.0 0.00 0.00 0.00 51 1015.6
20260507184002 67 61 7.0 13.0 0.00 0.00 0.00 53 1015.6
20260507182944 67 52 6.0 12.0 0.00 0.00 0.00 53 1015.7
20260507181950 66 59 3.0 14.0 0.00 0.00 0.00 53 1015.8
20260507180934 65 63 4.0 12.0 0.00 0.00 0.00 53 1015.9
20260507175955 65 59 8.0 14.0 0.00 0.00 0.00 55 1016.0
20260507174938 65 75 5.0 13.0 0.00 0.00 0.00 54 1016.1
20260507173945 64 57 8.0 11.0 0.00 0.00 0.00 54 1016.1
20260507172948 64 49 3.0 12.0 0.00 0.00 0.00 55 1016.2
20260507172008 63 58 2.0 9.0 0.00 0.00 0.00 57 1016.3
20260507170933 63 65 9.0 13.0 0.00 0.00 0.00 57 1016.4
20260507165936 62 64 8.0 12.0 0.00 0.00 0.00 57 1016.4
20260507164942 62 42 8.0 14.0 0.00 0.00 0.00 57 1016.5
20260507163949 61 78 10.0 16.0 0.00 0.00 0.00 57 1016.5
20260507162951 61 65 9.0 13.0 0.00 0.00 0.00 58 1016.4
20260507161952 60 59 11.0 16.0 0.00 0.00 0.00 60 1016.4
20260507160936 60 15 10.0 13.0 0.00 0.00 0.00 60 1016.5
20260507155937 59 46 9.0 16.0 0.00 0.00 0.00 60 1016.6
20260507154952 59 83 9.0 15.0 0.00 0.00 0.00 62 1016.7
20260507153950 58 9 8.0 15.0 0.00 0.00 0.00 62 1016.6
20260507153011 57 360 8.0 18.0 0.00 0.00 0.00 63 1016.4
20260507151936 57 355 9.0 17.0 0.00 0.00 0.00 64 1016.4
20260507150958 57 56 9.0 17.0 0.00 0.00 0.00 64 1016.4
20260507150000 57 33 8.0 18.0 0.00 0.00 0.00 65 1016.3
20260507144942 57 46 8.0 14.0 0.00 0.00 0.00 64 1016.2
20260507143931 57 53 5.0 15.0 0.00 0.00 0.00 66 1016.2
20260507142957 56 14 4.0 7.0 0.00 0.00 0.00 69 1016.0
20260507141937 56 9 0.0 0.0 0.00 0.00 0.00 71 1015.9
20260507141001 54 9 3.0 7.0 0.00 0.00 0.00 73 1015.6
20260507135943 53 9 0.0 0.0 0.00 0.00 0.00 73 1015.6
20260507134933 53 9 0.0 0.0 0.00 0.00 0.00 73 1015.6
20260507133936 53 9 0.0 0.0 0.00 0.00 0.00 72 1015.5
20260507131938 53 9 0.0 0.0 0.00 0.00 0.00 73 1015.4
20260507131006 54 9 0.0 0.0 0.00 0.00 0.00 73 1015.4
20260507125943 55 9 0.0 0.0 0.00 0.00 0.00 71 1015.3
20260507124944 55 9 0.0 0.0 0.00 0.00 0.00 71 1015.4
20260507123942 55 9 0.0 5.0 0.00 0.00 0.00 70 1015.5
20260507122943 56 9 2.0 10.0 0.00 0.00 0.00 69 1015.5
20260507121939 56 350 4.0 12.0 0.00 0.00 0.00 69 1015.4
20260507120949 56 19 2.0 13.0 0.00 0.00 0.00 69 1015.5
20260507115932 56 360 5.0 12.0 0.00 0.00 0.00 68 1015.5
20260507114935 57 360 6.0 15.0 0.00 0.00 0.00 67 1015.6
20260507113937 57 26 9.0 15.0 0.00 0.00 0.00 65 1015.5
20260507111938 57 28 9.0 16.0 0.00 0.00 0.00 64 1015.4
20260507110940 58 43 7.0 17.0 0.00 0.00 0.00 63 1015.5
20260507105943 58 40 6.0 16.0 0.00 0.00 0.00 62 1015.3
20260507104945 58 41 7.0 17.0 0.00 0.00 0.00 62 1015.4
20260507103932 58 42 6.0 15.0 0.00 0.00 0.00 61 1015.3
20260507102936 59 33 10.0 16.0 0.00 0.00 0.00 60 1015.3
20260507101939 58 11 8.0 14.0 0.00 0.00 0.00 61 1015.4
20260507101002 58 22 6.0 11.0 0.00 0.00 0.00 61 1015.6
20260507095946 58 360 8.0 13.0 0.00 0.00 0.00 62 1015.6
20260507094949 58 19 3.0 9.0 0.00 0.00 0.00 62 1015.6
20260507093951 58 360 7.0 11.0 0.00 0.00 0.00 61 1015.5
20260507092950 59 19 3.0 12.0 0.00 0.00 0.00 60 1015.5
20260507091953 59 45 8.0 14.0 0.00 0.00 0.00 59 1015.5
20260507090936 58 10 6.0 12.0 0.00 0.00 0.00 58 1015.4
20260507085959 58 13 3.0 10.0 0.00 0.00 0.00 58 1015.3
20260507084940 58 43 0.0 0.0 0.00 0.00 0.00 59 1015.2
20260507083947 59 42 0.0 0.0 0.00 0.00 0.00 57 1015.0
20260507082935 59 344 0.0 0.0 0.00 0.00 0.00 56 1014.9
20260507081939 60 74 0.0 0.0 0.00 0.00 0.00 56 1014.9
20260507081002 60 74 0.0 4.0 0.00 0.00 0.00 54 1014.9
20260507075946 61 27 0.0 6.0 0.00 0.00 0.00 53 1014.8
20260507073949 62 23 6.0 14.0 0.00 0.00 0.00 53 1014.9
20260507072932 62 360 1.0 21.0 0.00 0.00 0.00 53 1014.8
20260507071938 62 19 4.0 14.0 0.00 0.00 0.00 53 1014.7
20260507070936 62 42 6.0 13.0 0.00 0.00 0.00 52 1014.6
20260507065952 62 47 9.0 15.0 0.00 0.00 0.00 52 1014.6
20260507064953 63 5 8.0 16.0 0.00 0.00 0.00 51 1014.6
20260507064015 63 30 9.0 17.0 0.00 0.00 0.00 51 1014.6
20260507062952 63 11 6.0 16.0 0.00 0.00 0.00 51 1014.5
20260507061953 63 24 10.0 18.0 0.00 0.00 0.00 50 1014.5
20260507060938 63 40 7.0 16.0 0.00 0.00 0.00 50 1014.5
20260507055941 63 30 9.0 14.0 0.00 0.00 0.00 50 1014.5
20260507054944 64 44 7.0 13.0 0.00 0.00 0.00 50 1014.5
20260507053946 64 32 8.0 17.0 0.00 0.00 0.00 49 1014.6
20260507053010 65 53 10.0 19.0 0.00 0.00 0.00 48 1014.5
20260507051956 65 22 8.0 12.0 0.00 0.00 0.00 48 1014.5
20260507050938 66 45 9.0 16.0 0.00 0.00 0.00 48 1014.5
20260507045939 66 28 8.0 16.0 0.00 0.00 0.00 47 1014.3
20260507044945 67 67 10.0 18.0 0.00 0.00 0.00 46 1014.4
20260507043935 67 40 9.0 19.0 0.00 0.00 0.00 46 1014.3
20260507042938 68 58 13.0 20.0 0.00 0.00 0.00 45 1014.4
20260507041941 69 37 10.0 20.0 0.00 0.00 0.00 44 1014.2
20260507040943 69 38 13.0 20.0 0.00 0.00 0.00 44 1014.1
20260507035933 69 40 11.0 18.0 0.00 0.00 0.00 44 1013.9
20260507035005 69 17 10.0 19.0 0.00 0.00 0.00 43 1013.9
20260507033942 69 40 9.0 14.0 0.00 0.00 0.00 44 1013.8
20260507032943 70 30 13.0 21.0 0.00 0.00 0.00 44 1013.5
20260507031944 70 61 10.0 16.0 0.00 0.00 0.00 44 1013.3
20260507031020 70 51 11.0 16.0 0.00 0.00 0.00 43 1013.2
20260507025934 71 79 10.0 21.0 0.00 0.00 0.00 43 1013.2
20260507024940 71 23 11.0 18.0 0.00 0.00 0.00 42 1012.6
20260507023944 72 36 10.0 20.0 0.00 0.00 0.00 43 1012.5
20260507022934 72 42 12.0 22.0 0.00 0.00 0.00 45 1012.4
20260507021937 72 40 12.0 20.0 0.00 0.00 0.00 45 1012.5
20260507021000 73 44 13.0 24.0 0.00 0.00 0.00 44 1012.3
20260507015945 73 45 9.0 17.0 0.00 0.00 0.00 46 1012.3
20260507014948 73 49 9.0 15.0 0.00 0.00 0.00 46 1012.3
20260507013958 73 46 10.0 16.0 0.00 0.00 0.00 48 1012.2
20260507012940 74 55 7.0 17.0 0.00 0.00 0.00 47 1012.2
20260507011943 74 54 5.0 11.0 0.00 0.00 0.00 47 1012.2
20260507010949 74 56 8.0 12.0 0.00 0.00 0.00 47 1012.2
20260507005934 74 58 9.0 12.0 0.00 0.00 0.00 47 1012.2
20260507004955 75 57 10.0 13.0 0.00 0.00 0.00 47 1012.2
20260507003935 75 60 7.0 12.0 0.00 0.00 0.00 47 1012.2
20260507002935 75 59 9.0 15.0 0.00 0.00 0.00 45 1012.2
20260507001951 75 59 10.0 17.0 0.00 0.00 0.00 44 1012.2
20260507000934 76 59 14.0 22.0 0.00 0.00 0.00 41 1012.3
20260506235953 76 52 11.0 23.0 0.00 0.00 0.00 41 1012.2
20260506234945 77 43 13.0 19.0 0.00 0.00 0.00 39 1012.1
20260506234006 77 31 12.0 17.0 0.00 0.00 0.00 41 1012.2
20260506232932 78 25 8.0 15.0 0.00 0.00 0.00 42 1012.1
20260506231935 77 22 9.0 18.0 0.00 0.00 0.00 42 1012.1
20260506230940 77 11 11.0 17.0 0.00 0.00 0.00 41 1012.1
20260506225942 78 5 9.0 14.0 0.00 0.00 0.00 45 1012.2
20260506225004 78 360 11.0 16.0 0.00 0.00 0.00 43 1012.3
20260506223949 78 355 8.0 13.0 0.00 0.00 0.00 46 1012.3
20260506222931 78 355 6.0 10.0 0.00 0.00 0.00 42 1012.3
20260506221937 78 355 2.0 14.0 0.00 0.00 0.00 47 1012.5
20260506221000 79 355 6.0 15.0 0.00 0.00 0.00 42 1012.6
20260506215945 79 355 3.0 17.0 0.00 0.00 0.00 44 1012.6